Deming, NM

6:59 AM MDT on August 23, 2017 (GMT -0600)
Deming Municipal

Weather History for KDMN - October, 2012

Change the Weather History Date:

Monday, October 22, 2012

  Actual Average Record
Temperature  
Mean Temperature 60 °F 59 °F  
Max Temperature 79 °F 75 °F 86 °F (1950)
Min Temperature 41 °F 43 °F 30 °F (1996)
Degree Days  
Heating Degree Days 5    
Growing Degree Days 10 (Base 50)    
Moisture  
Dew Point 34 °F    
Average Humidity 42    
Maximum Humidity 65    
Minimum Humidity 19    
Precipitation  
Precipitation 0.00 in 0.03 in 0.24 in (1991)
Month to date precipitation 0.04 0.85  
Year to date precipitation 3.75 9.74  
Sea Level Pressure  
Sea Level Pressure 29.87 in    
Wind  
Wind Speed 7 mph (West)    
Max Wind Speed 21 mph    
Max Gust Speed 28 mph    
Visibility 10 miles    
Events      
T = Trace of Precipitation, MM = Missing Value Source: NWS Daily Summary

Daily Weather History Graph

Daily Weather History Graph

Search for Another Location

Airport or City:

Trip Planner

Search our weather history database for the weather conditions in past years. The results will help you decide how hot, cold, wet, or windy it might be!

Date:

Astronomy

Oct. 22, 2012 Rise Set
Actual Time 7:20 AM MDT 6:29 PM MDT
Civil Twilight 6:55 AM MDT 6:54 PM MDT
Nautical Twilight 6:26 AM MDT 7:23 PM MDT
Astronomical Twilight 5:58 AM MDT 7:51 PM MDT
Moon 2:18 PM MDT (10/22) 12:33 AM MDT (10/22)
Length of Visible Light 11h 59m
Length of Day
11h 09m
First Quarter, 57% of the Moon is Illuminated
Oct 22
First Quarter
Oct 29
Full
Nov 6
Last Quarter
Nov 13
New
Nov 20
First Quarter

Hourly Weather History & Observations

Time (MDT) Temp. Windchill Dew Point Humidity Pressure Visibility Wind Dir Wind Speed Gust Speed Precip Events Conditions
12:53 AM 51.1 °F - 36.0 °F 56% 29.82 in 10.0 mi NNE 3.5 mph - N/A   Clear
1:53 AM 48.9 °F - 35.1 °F 59% 29.83 in 10.0 mi North 4.6 mph - N/A   Clear
2:53 AM 48.0 °F - 35.1 °F 61% 29.82 in 10.0 mi WNW 3.5 mph - N/A   Clear
3:53 AM 51.1 °F - 35.1 °F 54% 29.82 in 10.0 mi WSW 6.9 mph - N/A   Clear
4:53 AM 46.0 °F 43.1 °F 34.0 °F 63% 29.84 in 10.0 mi West 5.8 mph - N/A   Clear
5:53 AM 45.0 °F 41.8 °F 32.0 °F 60% 29.87 in 10.0 mi WNW 5.8 mph - N/A   Clear
6:53 AM 41.0 °F - 30.9 °F 67% 29.91 in 10.0 mi Calm Calm - N/A   Clear
7:53 AM 46.0 °F 44.8 °F 32.0 °F 58% 29.92 in 10.0 mi SW 3.5 mph - N/A   Clear
8:53 AM 55.9 °F - 35.1 °F 45% 29.92 in 10.0 mi SSW 3.5 mph - N/A   Clear
9:53 AM 62.1 °F - 37.0 °F 39% 29.93 in 10.0 mi WSW 8.1 mph - N/A   Clear
10:53 AM 68.0 °F - 39.0 °F 35% 29.92 in 10.0 mi West 9.2 mph - N/A   Clear
11:53 AM 71.1 °F - 39.0 °F 31% 29.91 in 10.0 mi WSW 5.8 mph - N/A   Clear
12:53 PM 73.9 °F - 37.0 °F 26% 29.87 in 10.0 mi SW 9.2 mph 16.1 mph N/A   Clear
1:53 PM 75.9 °F - 36.0 °F 23% 29.84 in 10.0 mi West 12.7 mph 23.0 mph N/A   Clear
2:53 PM 77.0 °F - 34.0 °F 21% 29.82 in 10.0 mi West 19.6 mph 25.3 mph N/A   Clear
3:53 PM 79.0 °F - 33.1 °F 19% 29.81 in 10.0 mi West 10.4 mph 21.9 mph N/A   Clear
4:53 PM 78.1 °F - 32.0 °F 19% 29.82 in 10.0 mi West 11.5 mph 20.7 mph N/A   Clear
5:53 PM 75.9 °F - 30.9 °F 19% 29.83 in 10.0 mi West 12.7 mph - N/A   Clear
6:53 PM 71.1 °F - 32.0 °F 24% 29.87 in 10.0 mi WSW 8.1 mph - N/A   Clear
7:53 PM 66.0 °F - 30.9 °F 27% 29.90 in 10.0 mi West 3.5 mph - N/A   Clear
8:53 PM 62.1 °F - 33.1 °F 34% 29.88 in 10.0 mi NW 3.5 mph - N/A   Clear
9:53 PM 57.0 °F - 30.9 °F 37% 29.89 in 10.0 mi Calm Calm - N/A   Clear
10:53 PM 55.0 °F - 30.9 °F 40% 29.88 in 10.0 mi WSW 5.8 mph - N/A   Clear